Location: Lombard
(41.8800°N, 88.0080°W)
Time: 12:03:50
(UTC-05:00)

A-11 Canister half - Pass Details

Date: 02 February 2023
Orbit: 1512 x 1687 km, 47.2° (Epoch: 20 March)

Event Time Altitude Azimuth Distance (km) Brightness Sun altitude
Rises 12:40:31 0° 259° (WSW) 4,820 11.9 30.8°
Reaches altitude 10° 12:43:41 10° 261° (W) 3,811 11.4 30.7°
Maximum altitude 12:53:20 71° 346° (NNW) 1,633 9.4 30.4°
Drops below altitude 10° 13:02:40 10° 70° (ENE) 3,695 10.8 29.9°
Sets 13:05:42 0° 73° (ENE) 4,666 11.2 29.8°
